[[{"header":{"parameterUnit":"m.s-1","parameterCategory":1,"la1":30.2991,"la2":30.254,"lo1":-89.0895,"lo2":-89.0444,"dx":0.0017,"dy":0.0017,"nx":28,"ny":28,"refTime":"2023-01-07T03:00:00:Z","depth":0,"parameterNumber":2,"parameterNumberName":"U-component_of_WINDS"},"data":[0,0,0,0,0,0,0,0,0,0,0,0,0,0,0,0,0,0,0,0,0,0,0,0,0,0,0,0,0,0,0,0,0,0,0,0,0,0,0,0,0,0,0,0,0,0,0,0,0,0,0,0,0,0,0,0,0,0,0.5619,0.562,0,0.5729,0.573,0.5731,0.5786,0.5786,0.5786,0.5786,0.59,0.5902,0.5905,0,0,0,0,0,0,0,0,0,0,0,0,0,0.5458,0.5461,0.5619,0.562,0.5621,0.5728,0.573,0.5731,0.5786,0.5786,0.5786,0.5786,0.5899,0.5902,0.5906,0,0,0,0,0,0,0,0,0,0,0,0,0,0.5544,0.5462,0.5618,0.5662,0.5666,0.5728,0.573,0.5732,0.5786,0.5786,0.5786,0.5786,0.5897,0.5902,0.5906,0.5934,0,0,0.592,0.5922,0,0,0,0,0,0,0,0,0.5539,0.555,0.5654,0.5659,0.5664,0.5744,0.5715,0.58,0.5786,0.5741,0.5786,0.5786,0.5848,0.5856,0.5877,0.5939,0.5944,0.592,0.5923,0.5925,0.5926,0,0,0,0,0,0,0,0.5533,0.5545,0.5662,0.5655,0.5662,0.5676,0.5688,0.5731,0.5793,0.5745,0.5749,0.5761,0.5851,0.5872,0.588,0.5946,0.592,0.5924,0.5927,0.5929,0.6038,0.6038,0,0,0,0,0,0,0.552,0.554,0.5659,0.5666,0.56,0.5679,0.5693,0.5718,0.5792,0.5804,0.5761,0.5763,0.5865,0.5875,0.5884,0.5923,0.5925,0.5929,0.5932,0.6038,0.6038,0.6038,0,0,0,0,0,0,0.5516,0.553,0.5654,0.5604,0.5621,0.5682,0.571,0.572,0.5742,0.5805,0.5816,0.5772,0.5865,0.5878,0.5921,0.5927,0.5931,0.5935,0.6038,0.6038,0.6038,0.5998,0,0,0,0,0,0,0.5511,0.5528,0.5538,0.5604,0.5623,0.5689,0.571,0.5722,0.575,0.5754,0.5818,0.5829,0.5866,0.5914,0.5926,0.5934,0.5939,0.6037,0.6038,0.6038,0.5999,0.5997,0.5995,0,0,0,0,0,0.5505,0.5523,0.5539,0.5553,0.5637,0.5689,0.57,0.5743,0.575,0.5761,0.5802,0.5827,0.5925,0.5918,0.5932,0.5941,0.6037,0.6038,0.6038,0.6,0.5998,0.5995,0,0,0,0,0,0,0.5456,0.5532,0.5551,0.5589,0.5632,0.5698,0.5714,0.5738,0.578,0.5782,0.5834,0.5848,0.5887,0.5918,0.591,0.5973,0.5984,0.5987,0.595,0.5948,0.5946,0.5938,0.5943,0,0,0,0,0,0.545,0.5485,0.5549,0.5577,0.5598,0.5652,0.5676,0.5705,0.5752,0.577,0.5814,0.5859,0.59,0.5926,0.5967,0.6005,0.602,0.6018,0.6016,0.6014,0.6016,0.604,0.604,0.604,0.604,0.604,0,0,0.5437,0.5483,0.5502,0.5569,0.5605,0.5641,0.5667,0.5703,0.5731,0.5776,0.582,0.5854,0.5907,0.5948,0.5968,0.5976,0.6019,0.6014,0.6012,0.6015,0.604,0.604,0.604,0.604,0.604,0.604,0,0,0.5432,0.547,0.5498,0.5535,0.559,0.5627,0.5633,0.5696,0.572,0.5765,0.58,0.5834,0.5904,0.5941,0.5969,0.598,0.6005,0.5992,0.5982,0.6005,0.6005,0.6005,0.601,0.6011,0.5994,0.5994,0.5994,0,0.5409,0.5464,0.551,0.5545,0.5574,0.5617,0.5647,0.568,0.5746,0.5766,0.5773,0.5862,0.5901,0.5952,0.5955,0.5976,0.5987,0.5985,0.6001,0.6002,0.6003,0.6008,0.601,0.5992,0.5993,0.5993,0.5993,0,0.5434,0.5472,0.5488,0.5551,0.5583,0.5615,0.5666,0.5692,0.5719,0.5755,0.5801,0.585,0.5902,0.5917,0.5943,0.5972,0.5975,0.5991,0.6003,0.6,0.6006,0.6009,0.599,0.599,0.5991,0.5991,0,0,0.54,0.5489,0.5494,0.5525,0.559,0.562,0.5655,0.5707,0.5729,0.5774,0.5805,0.5864,0.5879,0.5911,0.5942,0.5962,0.597,0.5976,0.5978,0.5974,0.6007,0.5995,0.5997,0.5987,0.5988,0.5988,0.6003,0,0.5405,0.5469,0.5512,0.5559,0.5596,0.5638,0.5669,0.5713,0.5748,0.5784,0.5823,0.5864,0.5881,0.5901,0.5923,0.5964,0.5978,0.5964,0.6018,0.6019,0.6003,0.6,0.5987,0.5998,0.6005,0.6006,0.6006,0,0.5418,0.5462,0.5514,0.5577,0.5594,0.562,0.5672,0.5706,0.5758,0.5782,0.5819,0.5851,0.5891,0.59,0.5957,0.5947,0.5971,0.5996,0.5997,0.6004,0.6012,0.6007,0.6002,0.6004,0.601,0.601,0.601,0,0.5389,0.5461,0.5502,0.5526,0.5601,0.5619,0.5651,0.5703,0.5731,0.5777,0.5797,0.5846,0.5873,0.5912,0.5957,0.5959,0.601,0.6022,0.6032,0.6031,0.604,0.6039,0.604,0.6055,0.6055,0.6055,0.6055,0,0.539,0.542,0.549,0.5515,0.555,0.56,0.5634,0.567,0.5716,0.5749,0.5789,0.582,0.5878,0.5916,0.5952,0.5994,0.6006,0.6028,0.6037,0.6024,0.6022,0.6041,0.6042,0.6056,0.6056,0.6056,0.6056,0,0.5363,0.5411,0.5458,0.5526,0.5544,0.5567,0.5625,0.5651,0.5689,0.5731,0.5744,0.5803,0.585,0.59,0.5964,0.5988,0.6029,0.6042,0.6012,0.6017,0.6024,0.6023,0.6039,0.6044,0.6054,0.6054,0.6054,0,0.536,0.5385,0.5455,0.5481,0.5512,0.5552,0.5582,0.5633,0.5662,0.5724,0.5744,0.5794,0.5837,0.5911,0.596,0.601,0.6024,0.6026,0.6032,0.6019,0.6026,0.6024,0.6027,0.6024,0.6024,0.6023,0.6023,0,0.5351,0.5374,0.5416,0.5467,0.5502,0.5544,0.5588,0.5606,0.5666,0.5698,0.5747,0.578,0.5846,0.5896,0.5952,0.5986,0.6015,0.6021,0.6026,0.6014,0.5996,0.6007,0.6007,0.602,0.6021,0.6021,0.6021,0.6021,0.5337,0.5361,0.5415,0.5461,0.5499,0.554,0.5569,0.5611,0.5652,0.571,0.5738,0.5787,0.584,0.5919,0.5952,0.5992,0.6001,0.6008,0.601,0.6011,0.6008,0.5989,0.6003,0.6003,0.6003,0.6003,0.6003,0,0.533,0.5367,0.5409,0.547,0.5506,0.553,0.5581,0.561,0.5653,0.57,0.5742,0.5799,0.5849,0.5902,0.5955,0.5977,0.5992,0.599,0.5989,0.5996,0.5997,0.5988,0.5977,0.5977,0.5977,0.5977,0.5977,0.5977,0.5331,0.5374,0.5403,0.5466,0.5504,0.5553,0.558,0.5618,0.5656,0.5718,0.5759,0.5794,0.5845,0.5902,0.5949,0.5964,0.5982,0.5976,0.5994,0.5994,0.5996,0.5998,0.599,0.5979,0.5979,0.5991,0.5991,0.5991]},{"header":{"parameterUnit":"m.s-1","parameterCategory":1,"la1":30.2991,"la2":30.254,"lo1":-89.0895,"lo2":-89.0444,"dx":0.0017,"dy":0.0017,"nx":28,"ny":28,"refTime":"2023-01-07T03:00:00:Z","depth":0,"parameterNumber":3,"parameterNumberName":"V-component_of_WINDS"},"data":[0,0,0,0,0,0,0,0,0,0,0,0,0,0,0,0,0,0,0,0,0,0,0,0,0,0,0,0,0,0,0,0,0,0,0,0,0,0,0,0,0,0,0,0,0,0,0,0,0,0,0,0,0,0,0,0,0,0,-1.3412,-1.3413,0,-1.3436,-1.3436,-1.3437,-1.3448,-1.3448,-1.3448,-1.3447,-1.3469,-1.3469,-1.347,0,0,0,0,0,0,0,0,0,0,0,0,0,-1.3375,-1.3376,-1.3412,-1.3413,-1.3413,-1.3436,-1.3436,-1.3437,-1.3448,-1.3448,-1.3447,-1.3447,-1.3469,-1.3469,-1.347,0,0,0,0,0,0,0,0,0,0,0,0,0,-1.3394,-1.3376,-1.3412,-1.3421,-1.3422,-1.3436,-1.3436,-1.3437,-1.3448,-1.3448,-1.3447,-1.3447,-1.3468,-1.3469,-1.347,-1.3476,0,0,-1.3473,-1.3473,0,0,0,0,0,0,0,0,-1.3393,-1.3396,-1.342,-1.3421,-1.3422,-1.3439,-1.3431,-1.345,-1.3448,-1.3438,-1.3447,-1.3447,-1.3459,-1.346,-1.3465,-1.3477,-1.3478,-1.3473,-1.3473,-1.3474,-1.3474,0,0,0,0,0,0,0,-1.3392,-1.3395,-1.3422,-1.342,-1.3421,-1.3424,-1.3426,-1.3435,-1.3448,-1.3439,-1.344,-1.3442,-1.3459,-1.3464,-1.3465,-1.3478,-1.3473,-1.3473,-1.3474,-1.3474,-1.3498,-1.3498,0,0,0,0,0,0,-1.3389,-1.3393,-1.3421,-1.3422,-1.3407,-1.3424,-1.3427,-1.3433,-1.3448,-1.345,-1.3442,-1.3443,-1.3462,-1.3464,-1.3466,-1.3475,-1.3474,-1.3474,-1.3475,-1.3498,-1.3498,-1.3498,0,0,0,0,0,0,-1.3388,-1.3392,-1.342,-1.3408,-1.3412,-1.3425,-1.3432,-1.3434,-1.3438,-1.3451,-1.3453,-1.3445,-1.3462,-1.3465,-1.3474,-1.3476,-1.3475,-1.3476,-1.3497,-1.3498,-1.3498,-1.3491,0,0,0,0,0,0,-1.3387,-1.3391,-1.3394,-1.3408,-1.3413,-1.3428,-1.3432,-1.3434,-1.344,-1.3441,-1.3453,-1.3455,-1.3463,-1.3473,-1.3475,-1.3477,-1.3476,-1.3497,-1.3498,-1.3498,-1.3491,-1.3491,-1.3491,0,0,0,0,0,-1.3386,-1.339,-1.3394,-1.3397,-1.3416,-1.3428,-1.343,-1.3439,-1.344,-1.3443,-1.3451,-1.3455,-1.3475,-1.3473,-1.3476,-1.3478,-1.3497,-1.3497,-1.3498,-1.3491,-1.3491,-1.3491,0,0,0,0,0,0,-1.3373,-1.3392,-1.3396,-1.3405,-1.3415,-1.3429,-1.3433,-1.3438,-1.3447,-1.3447,-1.3457,-1.346,-1.3468,-1.3474,-1.3472,-1.3485,-1.3487,-1.3487,-1.3481,-1.3481,-1.3481,-1.3479,-1.3477,0,0,0,0,0,-1.3372,-1.338,-1.3396,-1.3402,-1.3407,-1.3419,-1.3424,-1.3431,-1.3441,-1.3445,-1.3454,-1.3463,-1.3471,-1.3477,-1.3485,-1.3493,-1.3496,-1.3496,-1.3496,-1.3495,-1.3496,-1.3502,-1.3502,-1.3499,-1.3499,-1.3499,0,0,-1.3368,-1.3379,-1.3383,-1.34,-1.3408,-1.3417,-1.3422,-1.343,-1.3437,-1.3446,-1.3455,-1.3462,-1.3473,-1.3482,-1.3486,-1.3487,-1.3498,-1.3496,-1.3495,-1.3496,-1.3502,-1.3502,-1.3502,-1.3499,-1.3499,-1.3499,0,0,-1.3365,-1.3375,-1.3382,-1.3391,-1.3404,-1.3413,-1.3415,-1.3429,-1.3435,-1.3445,-1.3452,-1.346,-1.3474,-1.3482,-1.3488,-1.3492,-1.3496,-1.3494,-1.3493,-1.3499,-1.3499,-1.3499,-1.3501,-1.3502,-1.3495,-1.3495,-1.3495,0,-1.3358,-1.3372,-1.3384,-1.3393,-1.34,-1.3411,-1.3418,-1.3426,-1.3441,-1.3446,-1.3447,-1.3467,-1.3474,-1.3486,-1.3487,-1.3492,-1.3494,-1.3492,-1.3498,-1.3498,-1.3499,-1.3501,-1.3501,-1.3494,-1.3494,-1.3494,-1.3495,0,-1.3364,-1.3374,-1.3378,-1.3394,-1.3402,-1.3409,-1.3422,-1.3429,-1.3435,-1.3444,-1.3455,-1.3465,-1.3477,-1.348,-1.3486,-1.3493,-1.3493,-1.3496,-1.3498,-1.3499,-1.3501,-1.3501,-1.3494,-1.3494,-1.3494,-1.3494,0,0,-1.3351,-1.3377,-1.3378,-1.3386,-1.3403,-1.3411,-1.342,-1.3433,-1.3439,-1.3449,-1.3457,-1.347,-1.3474,-1.3481,-1.3487,-1.3492,-1.3496,-1.3495,-1.3495,-1.3495,-1.3506,-1.3503,-1.3504,-1.35,-1.35,-1.35,-1.3505,0,-1.3351,-1.3369,-1.3381,-1.3394,-1.3403,-1.3415,-1.3423,-1.3434,-1.3443,-1.3452,-1.3462,-1.3471,-1.3475,-1.3479,-1.3485,-1.3494,-1.3498,-1.3494,-1.3506,-1.3507,-1.3503,-1.3505,-1.3502,-1.3506,-1.3506,-1.3506,-1.3506,0,-1.3353,-1.3366,-1.338,-1.3398,-1.3403,-1.3409,-1.3423,-1.3432,-1.3446,-1.3452,-1.3461,-1.3469,-1.3479,-1.3481,-1.3495,-1.3492,-1.3498,-1.3504,-1.3504,-1.3505,-1.3506,-1.3506,-1.3507,-1.3508,-1.3507,-1.3507,-1.3507,0,-1.3343,-1.3363,-1.3375,-1.3382,-1.3403,-1.3408,-1.3417,-1.3431,-1.3439,-1.3451,-1.3456,-1.3469,-1.3475,-1.3485,-1.3496,-1.3496,-1.3509,-1.3511,-1.3514,-1.3514,-1.3516,-1.3515,-1.3518,-1.352,-1.352,-1.352,-1.352,0,-1.3341,-1.3349,-1.3371,-1.3378,-1.3388,-1.3403,-1.3412,-1.3422,-1.3434,-1.3444,-1.3454,-1.3462,-1.3477,-1.3487,-1.3495,-1.3506,-1.3509,-1.3514,-1.3516,-1.3513,-1.3512,-1.3516,-1.3516,-1.352,-1.352,-1.352,-1.352,0,-1.3331,-1.3346,-1.3359,-1.338,-1.3385,-1.3392,-1.3409,-1.3416,-1.3427,-1.3439,-1.3442,-1.3458,-1.3471,-1.3483,-1.3499,-1.3506,-1.3516,-1.3519,-1.3512,-1.3513,-1.3516,-1.3515,-1.3521,-1.3523,-1.3524,-1.3524,-1.3524,0,-1.3328,-1.3335,-1.3357,-1.3365,-1.3375,-1.3387,-1.3395,-1.3411,-1.3419,-1.3437,-1.3442,-1.3456,-1.3468,-1.3487,-1.35,-1.3513,-1.3516,-1.3518,-1.3518,-1.3515,-1.3516,-1.3516,-1.3517,-1.3517,-1.3517,-1.3517,-1.3517,0,-1.3322,-1.333,-1.3343,-1.3359,-1.337,-1.3383,-1.3396,-1.3402,-1.342,-1.3429,-1.3443,-1.3453,-1.3471,-1.3484,-1.35,-1.3508,-1.3515,-1.3517,-1.3518,-1.3514,-1.351,-1.3513,-1.3511,-1.3516,-1.3516,-1.3516,-1.3516,-1.3516,-1.3315,-1.3323,-1.3341,-1.3355,-1.3368,-1.3381,-1.3389,-1.3402,-1.3415,-1.3432,-1.344,-1.3455,-1.347,-1.3491,-1.35,-1.3511,-1.3513,-1.3515,-1.3515,-1.3515,-1.3515,-1.3509,-1.3514,-1.3514,-1.3514,-1.3514,-1.3514,0,-1.331,-1.3323,-1.3337,-1.3356,-1.3368,-1.3377,-1.3392,-1.3401,-1.3414,-1.3429,-1.3441,-1.3458,-1.3472,-1.3488,-1.3502,-1.3509,-1.3512,-1.3512,-1.3511,-1.3513,-1.3512,-1.351,-1.3509,-1.3509,-1.3509,-1.3509,-1.3509,-1.3509,-1.3309,-1.3322,-1.3333,-1.3353,-1.3366,-1.3382,-1.339,-1.3402,-1.3414,-1.3434,-1.3446,-1.3457,-1.3472,-1.3488,-1.3502,-1.3506,-1.3511,-1.3509,-1.3514,-1.3513,-1.3513,-1.3514,-1.3511,-1.351,-1.351,-1.3514,-1.3514,-1.3514]}]]